User: anonymous   Login
Location: Unspecified
(0.0000°N, 0.0000°E)
Time: 21:25:39
(UTC+00:00)
Language:

Mublcom - Orbit

View from above orbital plane
View from above orbital plane
View from above satellite
View from above satellite

Ground track
Ground track

The orbit data is extracted from the following two-line orbital elements,

1 25736U 99026B   18051.79347849  .00000151  00000-0  49824-4 0  9993
2 25736  97.7377 115.7793 0004582 350.6300   9.4809 14.49070694989194
Epoch (UTC): 20 February 2018 19:02:36
Eccentricity: 0.0004582
inclination: 97.7377°
perigee height: 725 km
apogee height: 732 km
right ascension of ascending node: 115.7793°
argument of perigee: 350.6300°
revolutions per day: 14.49070694
mean anomaly at epoch: 9.4809°
orbit number at epoch: 98919

The dashed part of the orbit path shows where the satellite is in the earth's shadow,  

DLR